This demonstration page uses our WeatherBlox Daily Observations layout. Learn more.

Left ArrowRight Arrow

38.83388, -104.82136

Hourly Observations for January 17, 2021

Temp ( °F °C ) Dew Point ( °F °C ) Humidity (%) Winds ( mph kmh ) Pressure ( in mb ) Visibility ( mi km ) Precip ( " mm )
12:58 am 00:58 Mostly Cloudy 25 -3.8 19 -7 79 79 Calm 30.19 1022 10 16 0.00 0.00
1:58 am 01:58 Mostly Cloudy 24 -4.3 18 -7.7 77 77 Calm 30.19 1022 10 16 0.00 0.00
2:58 am 02:58 Partly Cloudy 24 -4.7 17 -8.5 75 75 Calm 30.20 1023 10 16 0.00 0.00
3:58 am 03:58 Mostly Cloudy 23 -5 14 -9.8 69 69 S 5 7 29.83 1010 10 16 0.00 0.00
4:58 am 04:58 Mostly Cloudy 23 -5.1 16 -8.7 76 76 Calm 29.83 1010 10 16 0.00 0.00
5:58 am 05:58 Mostly Cloudy 22 -5.4 17 -8.3 80 80 Calm 29.85 1011 10 16 0.00 0.00
6:58 am 06:58 Mostly Cloudy 22 -5.6 16 -8.7 79 79 Calm 29.88 1012 10 16 0.00 0.00
7:58 am 07:58 Mostly Cloudy 23 -5.1 17 -8.6 77 77 N 3 6 29.87 1011 10 16 0.00 0.00
8:58 am 08:58 Mostly Sunny 24 -4.6 16 -9.1 71 71 Calm 29.88 1012 10 16 0.00 0.00
9:58 am 09:58 Mostly Sunny 28 -2.3 16 -8.8 61 61 Calm 29.86 1011 10 16 0.00 0.00
10:58 am 10:58 Sunny 32 0.1 17 -8.1 54 54 SE 5 7 29.81 1009 10 16 0.00 0.00
11:58 am 11:58 Mostly Cloudy 33 0.5 17 -8.3 52 52 SE 9 15 29.75 1008 10 16 0.00 0.00
12:58 pm 12:58 Sunny 36 2.1 17 -8.3 46 46 ESE 8 13 29.73 1007 10 16 0.00 0.00
1:58 pm 13:58 Mostly Cloudy 36 2.1 16 -8.7 45 45 SE 8 13 29.71 1006 10 16 0.00 0.00
2:58 pm 14:58 Mostly Sunny 36 2.1 15 -9.3 43 43 SSE 12 19 29.69 1006 10 16 0.00 0.00
3:58 pm 15:58 Sunny 33 0.8 15 -9.2 48 48 S 3 6 29.71 1006 10 16 0.00 0.00
4:58 pm 16:58 Sunny 32 0.1 16 -9 51 51 SSW 7 11 29.69 1005 10 16 0.00 0.00
5:58 pm 17:58 Mostly Cloudy 31 -0.5 16 -9 53 53 NW 5 7 29.70 1006 10 16 0.00 0.00
6:58 pm 18:58 Mostly Cloudy 36 2.1 17 -8.4 46 46 Calm 29.65 1004 10 16 0.00 0.00
7:58 pm 19:58 Partly Cloudy 31 -0.6 16 -9.1 53 53 SE 7 11 29.62 1003 10 16 0.00 0.00
8:58 pm 20:58 Clear 31 -0.8 15 -9.4 53 53 SSW 6 9 29.62 1003 10 16 0.00 0.00
9:58 pm 21:58 Clear 38 3.2 17 -8.6 42 42 S 6 9 29.56 1001 10 16 0.00 0.00
10:58 pm 22:58 Clear 36 2.1 15 -9.7 42 42 SSW 6 9 29.55 1001 10 16 0.00 0.00
11:58 pm 23:58 Clear 40 4.3 16 -8.8 38 38 S 7 11 29.54 1000 10 16 0.00 0.00

Powered by AerisWeather